EW7004 Weather Reports


time (UTC)temp
F
wind
direction
speed
knots
gust
knots
rain 1hr
in
rain 24hr
in
rain mn
in
humidity
%
barometer
mb
20260902034403 76 206 0.9 1.7 0.00 0.00 0.00 34 1031.3
20260902033903 76 173 0.9 4.3 0.00 0.00 0.00 33 1031.3
20260902033403 77 180 0.9 4.3 0.00 0.00 0.00 33 1031.1
20260902032903 77 210 1.7 6.1 0.00 0.00 0.00 33 1031.1
20260902032403 77 218 2.6 5.2 0.00 0.00 0.00 32 1031.0
20260902031903 77 224 2.6 5.2 0.00 0.00 0.00 32 1030.9
20260902031404 78 223 4.3 7.8 0.00 0.00 0.00 31 1030.8
20260902030903 78 223 3.5 6.1 0.00 0.00 0.00 31 1030.8
20260902030403 78 233 4.3 7.8 0.00 0.00 0.00 31 1030.7
20260902025403 79 218 5.2 10.4 0.00 0.00 0.00 30 1030.7
20260902024904 79 215 6.1 10.4 0.00 0.00 0.00 30 1030.7
20260902024403 80 216 4.3 7.0 0.00 0.00 0.00 29 1030.7
20260902023903 80 227 2.6 5.2 0.00 0.00 0.00 29 1030.7
20260902023405 80 208 4.3 7.0 0.00 0.00 0.00 28 1030.6
20260902022903 80 226 4.3 6.1 0.00 0.00 0.00 28 1030.4
20260902022404 81 226 5.2 8.7 0.00 0.00 0.00 28 1030.3
20260902021903 81 226 4.3 8.7 0.00 0.00 0.00 28 1030.3
20260902020903 82 222 5.2 7.8 0.00 0.00 0.00 27 1030.2
20260902015903 83 218 7.8 11.3 0.00 0.00 0.00 26 1030.1
20260902015403 83 223 7.8 10.4 0.00 0.00 0.00 26 1030.1
20260902014903 83 218 7.8 11.3 0.00 0.00 0.00 26 1030.1
20260902013903 84 210 8.7 13.9 0.00 0.00 0.00 25 1030.0
20260902013403 84 209 7.8 13.0 0.00 0.00 0.00 25 1030.0
20260902012904 85 214 7.0 12.2 0.00 0.00 0.00 25 1030.0
20260902012403 85 210 7.8 13.0 0.00 0.00 0.00 25 1029.9
20260902011403 86 228 5.2 13.0 0.00 0.00 0.00 25 1029.9
20260902010904 86 214 10.4 13.9 0.00 0.00 0.00 24 1029.8
20260902010403 86 216 6.1 13.9 0.00 0.00 0.00 24 1029.8
20260902005904 86 228 7.8 13.9 0.00 0.00 0.00 24 1029.8
20260902005404 86 215 11.3 14.8 0.00 0.00 0.00 24 1029.7
20260902004903 87 207 9.6 14.8 0.00 0.00 0.00 24 1029.8
20260902004405 87 210 7.0 13.0 0.00 0.00 0.00 24 1029.8
20260902003904 87 232 7.8 12.2 0.00 0.00 0.00 24 1029.7
20260902003403 87 228 10.4 13.9 0.00 0.00 0.00 24 1029.8
20260902002903 87 221 7.0 13.9 0.00 0.00 0.00 24 1029.8
20260902002404 88 213 7.8 14.8 0.00 0.00 0.00 24 1029.8
20260902001903 88 206 7.8 14.8 0.00 0.00 0.00 24 1029.8
20260902001404 88 223 8.7 13.0 0.00 0.00 0.00 23 1029.8
20260902000903 88 222 9.6 17.4 0.00 0.00 0.00 23 1029.9
20260902000403 88 203 7.8 14.8 0.00 0.00 0.00 23 1029.8
20260901235903 88 209 7.8 13.9 0.00 0.00 0.00 24 1029.9
20260901234903 89 224 6.1 15.6 0.00 0.00 0.00 23 1029.9
20260901233903 89 196 8.7 14.8 0.00 0.00 0.00 22 1029.9
20260901233403 89 208 7.8 14.8 0.00 0.00 0.00 23 1030.0
20260901232403 90 198 8.7 14.8 0.00 0.00 0.00 24 1030.0
20260901230903 90 216 7.0 13.0 0.00 0.00 0.00 24 1030.0
20260901230403 90 229 7.8 11.3 0.00 0.00 0.00 24 1030.0
20260901225904 90 224 6.1 12.2 0.00 0.00 0.00 24 1029.9
20260901225403 90 220 7.0 12.2 0.00 0.00 0.00 24 1030.0
20260901224903 90 219 7.8 13.0 0.00 0.00 0.00 23 1030.1
20260901224403 91 229 8.7 13.0 0.00 0.00 0.00 24 1030.1
20260901223904 91 223 5.2 15.6 0.00 0.00 0.00 24 1030.2
20260901223403 91 214 7.0 10.4 0.00 0.00 0.00 23 1030.2
20260901222903 91 193 4.3 10.4 0.00 0.00 0.00 24 1030.3
20260901222404 91 233 11.3 15.6 0.00 0.00 0.00 22 1030.3
20260901220904 91 214 6.1 10.4 0.00 0.00 0.00 21 1030.4
20260901220403 91 166 3.5 13.0 0.00 0.00 0.00 21 1030.4
20260901215903 91 246 6.1 15.6 0.00 0.00 0.00 20 1030.4
20260901214903 91 207 5.2 10.4 0.00 0.00 0.00 20 1030.6
20260901214403 91 138 1.7 8.7 0.00 0.00 0.00 19 1030.6
20260901213903 91 154 4.3 10.4 0.00 0.00 0.00 21 1030.7
20260901213403 91 233 1.7 7.0 0.00 0.00 0.00 18 1030.7
20260901212403 91 224 2.6 7.8 0.00 0.00 0.00 19 1030.8
20260901211903 90 126 3.5 7.8 0.00 0.00 0.00 19 1030.8
20260901210903 89 303 1.7 6.1 0.00 0.00 0.00 18 1030.9
20260901205903 90 284 7.0 12.2 0.00 0.00 0.00 18 1031.0
20260901205404 90 226 2.6 7.8 0.00 0.00 0.00 18 1031.0
20260901204903 89 234 2.6 10.4 0.00 0.00 0.00 17 1031.2
20260901203403 89 275 6.1 10.4 0.00 0.00 0.00 16 1031.4
20260901202404 89 267 4.3 10.4 0.00 0.00 0.00 17 1031.3
20260901201904 89 135 5.2 7.8 0.00 0.00 0.00 17 1031.5
20260901201403 89 145 2.6 7.8 0.00 0.00 0.00 17 1031.5
20260901200903 89 218 8.7 13.0 0.00 0.00 0.00 15 1031.6
20260901200404 89 227 7.8 13.0 0.00 0.00 0.00 15 1031.6
20260901195903 89 127 2.6 7.8 0.00 0.00 0.00 16 1031.7
20260901195403 89 121 1.7 5.2 0.00 0.00 0.00 16 1031.8
20260901194904 89 180 3.5 7.0 0.00 0.00 0.00 16 1031.9
20260901193903 88 156 2.6 6.1 0.00 0.00 0.00 17 1032.0
20260901192903 88 187 3.5 7.8 0.00 0.00 0.00 17 1032.1
20260901192403 87 188 1.7 5.2 0.00 0.00 0.00 18 1032.2
20260901191904 87 30 1.7 5.2 0.00 0.00 0.00 17 1032.3
20260901191403 87 243 1.7 2.6 0.00 0.00 0.00 17 1032.3
20260901190903 87 233 4.3 7.0 0.00 0.00 0.00 17 1032.4
20260901185904 86 168 2.6 7.0 0.00 0.00 0.00 19 1032.6
20260901184904 86 219 4.3 6.1 0.00 0.00 0.00 18 1032.6
20260901184403 86 214 1.7 5.2 0.00 0.00 0.00 18 1032.6
20260901183904 86 192 0.9 4.3 0.00 0.00 0.00 18 1032.6
20260901183404 85 188 1.7 5.2 0.00 0.00 0.00 19 1032.6
20260901182903 84 237 2.6 6.1 0.00 0.00 0.00 19 1032.7
20260901182404 83 234 2.6 6.1 0.00 0.00 0.00 21 1032.7
20260901181903 83 249 1.7 4.3 0.00 0.00 0.00 22 1032.7
20260901181404 82 291 1.7 6.1 0.00 0.00 0.00 23 1032.8
20260901180903 82 207 1.7 7.0 0.00 0.00 0.00 26 1032.8
20260901180404 83 209 1.7 4.3 0.00 0.00 0.00 26 1032.8
20260901174903 81 311 1.7 7.0 0.00 0.00 0.00 26 1032.9
20260901174403 81 224 2.6 4.3 0.00 0.00 0.00 26 1032.9
20260901173904 81 271 2.6 6.1 0.00 0.00 0.00 27 1032.9
20260901173403 81 254 2.6 4.3 0.00 0.00 0.00 28 1032.9
20260901172903 80 326 0.9 2.6 0.00 0.00 0.00 29 1032.9
20260901171904 80 255 1.7 2.6 0.00 0.00 0.00 28 1032.9
20260901171404 80 132 0.9 2.6 0.00 0.00 0.00 30 1032.8
20260901170903 79 205 0.9 2.6 0.00 0.00 0.00 31 1032.9
20260901170404 79 245 0.0 2.6 0.00 0.00 0.00 29 1032.8
20260901165403 78 163 0.0 0.0 0.00 0.00 0.00 30 1032.9
20260901164904 77 171 0.9 2.6 0.00 0.00 0.00 31 1032.9
20260901163903 76 203 0.9 2.6 0.00 0.00 0.00 31 1033.0
20260901163403 75 153 0.9 1.7 0.00 0.00 0.00 32 1033.0
20260901162904 74 330 0.0 1.7 0.00 0.00 0.00 31 1033.0
20260901162404 73 330 0.0 0.9 0.00 0.00 0.00 32 1032.9
20260901161903 72 284 0.0 2.6 0.00 0.00 0.00 33 1032.9
20260901161403 72 281 1.7 2.6 0.00 0.00 0.00 33 1032.9
20260901160403 71 289 0.0 1.7 0.00 0.00 0.00 36 1032.8
20260901155903 71 277 1.7 2.6 0.00 0.00 0.00 36 1032.8
20260901155403 71 338 0.0 0.0 0.00 0.00 0.00 40 1032.8
20260901154904 70 338 0.0 0.0 0.00 0.00 0.00 40 1032.8
20260901154403 70 338 0.0 1.7 0.00 0.00 0.00 41 1032.8
20260901153404 69 299 0.0 0.9 0.00 0.00 0.00 41 1032.8
20260901152903 69 297 0.9 2.6 0.00 0.00 0.00 40 1032.7
20260901152403 69 280 0.9 2.6 0.00 0.00 0.00 38 1032.8
20260901151903 69 298 0.9 2.6 0.00 0.00 0.00 37 1032.7
20260901151403 69 112 0.0 0.9 0.00 0.00 0.00 36 1032.7
20260901150903 69 112 0.0 0.0 0.00 0.00 0.00 36 1032.6
20260901150403 68 112 0.0 0.0 0.00 0.00 0.00 36 1032.6
20260901145904 68 112 0.0 0.0 0.00 0.00 0.00 37 1032.7
20260901145403 67 112 0.0 0.0 0.00 0.00 0.00 37 1032.6
20260901144903 67 112 0.0 0.0 0.00 0.00 0.00 38 1032.7
20260901144403 66 112 0.0 0.0 0.00 0.00 0.00 39 1032.6
20260901143903 65 112 0.0 0.0 0.00 0.00 0.00 41 1032.6
20260901143403 65 112 0.0 0.0 0.00 0.00 0.00 42 1032.6
20260901142903 64 112 0.0 0.0 0.00 0.00 0.00 42 1032.6
20260901142403 64 112 0.0 0.0 0.00 0.00 0.00 44 1032.5
20260901141903 63 112 0.0 0.0 0.00 0.00 0.00 44 1032.5
20260901141403 62 112 0.9 1.7 0.00 0.00 0.00 45 1032.5
20260901140903 62 112 0.0 0.0 0.00 0.00 0.00 46 1032.4
20260901140403 61 113 0.0 0.0 0.00 0.00 0.00 47 1032.5
20260901135903 61 113 0.0 0.0 0.00 0.00 0.00 47 1032.4
20260901134903 61 113 0.0 2.6 0.00 0.00 0.00 47 1032.2
20260901134403 61 163 0.0 0.0 0.00 0.00 0.00 47 1032.0
20260901133903 61 163 0.0 0.0 0.00 0.00 0.00 47 1032.0
20260901133404 61 163 0.0 0.0 0.00 0.00 0.00 47 1031.9
20260901132903 61 163 0.0 0.0 0.00 0.00 0.00 47 1031.7
20260901132405 61 163 0.0 0.0 0.00 0.00 0.00 47 1031.8
20260901131903 61 163 0.0 0.0 0.00 0.00 0.00 47 1031.7
20260901131404 61 163 0.0 0.9 0.00 0.00 0.00 47 1031.7
20260901130904 61 163 0.0 1.7 0.00 0.00 0.00 47 1031.5
20260901125903 60 163 0.0 1.7 0.00 0.00 0.00 47 1031.6
20260901125403 60 163 0.0 0.0 0.00 0.00 0.00 48 1031.6
20260901124903 61 163 0.0 0.0 0.00 0.00 0.00 48 1031.6
20260901124403 61 163 0.0 0.0 0.00 0.00 0.00 48 1031.5
20260901123904 61 163 0.0 0.0 0.00 0.00 0.00 48 1031.5
20260901123403 61 163 0.0 0.0 0.00 0.00 0.00 49 1031.6
20260901122903 61 163 0.0 0.0 0.00 0.00 0.00 47 1031.6
20260901122403 61 163 0.0 0.0 0.00 0.00 0.00 47 1031.5
20260901121903 61 163 0.0 0.0 0.00 0.00 0.00 48 1031.6
20260901120903 62 163 0.0 0.0 0.00 0.00 0.00 47 1031.3
20260901115904 62 163 0.0 0.0 0.00 0.00 0.00 46 1031.4
20260901115403 62 163 0.0 0.0 0.00 0.00 0.00 47 1031.4
20260901114904 62 163 0.0 0.0 0.00 0.00 0.00 46 1031.4
20260901114403 62 163 0.0 0.0 0.00 0.00 0.00 47 1031.3
20260901113403 62 163 0.0 0.0 0.00 0.00 0.00 47 1031.4
20260901112903 62 163 0.0 0.0 0.00 0.00 0.00 47 1031.4
20260901112403 62 163 0.0 0.0 0.00 0.00 0.00 47 1031.4
20260901111903 62 163 0.0 0.0 0.00 0.00 0.00 48 1031.4
20260901111404 62 163 0.0 0.0 0.00 0.00 0.00 48 1031.5
20260901110904 62 163 0.0 0.0 0.00 0.00 0.00 48 1031.5
20260901110404 62 248 0.0 0.0 0.00 0.00 0.00 47 1031.5
20260901105904 62 248 0.0 0.0 0.00 0.00 0.00 47 1031.4
20260901105403 62 248 0.0 0.0 0.00 0.00 0.00 47 1031.4
20260901104903 63 248 0.0 0.0 0.00 0.00 0.00 47 1031.5
20260901104403 63 248 0.0 0.0 0.00 0.00 0.00 50 1031.4
20260901103904 63 248 0.0 0.0 0.00 0.00 0.00 50 1031.5
20260901103403 63 248 0.0 0.0 0.00 0.00 0.00 50 1031.5
20260901101904 64 248 0.0 0.0 0.00 0.00 0.00 49 1031.4
20260901101403 64 248 0.0 0.0 0.00 0.00 0.00 48 1031.5
20260901100904 64 248 0.0 0.0 0.00 0.00 0.00 46 1031.3
20260901100404 65 122 0.0 0.0 0.00 0.00 0.00 44 1031.4
20260901095904 65 122 0.0 0.0 0.00 0.00 0.00 43 1031.4
20260901095403 65 122 0.0 0.0 0.00 0.00 0.00 43 1031.4
20260901094903 65 122 0.0 0.0 0.00 0.00 0.00 43 1031.5
20260901094403 65 122 0.0 0.0 0.00 0.00 0.00 43 1031.4
20260901093904 65 122 0.0 0.0 0.00 0.00 0.00 43 1031.3
20260901093404 65 122 0.0 0.0 0.00 0.00 0.00 43 1031.3
20260901092903 65 122 0.0 0.0 0.00 0.00 0.00 43 1031.3
20260901091903 66 122 0.0 0.0 0.00 0.00 0.00 43 1031.3
20260901091403 66 122 0.9 2.6 0.00 0.00 0.00 43 1031.3
20260901090903 66 97 0.0 0.0 0.00 0.00 0.00 43 1031.3
20260901090403 66 97 0.0 0.0 0.00 0.00 0.00 43 1031.3
20260901085903 66 97 0.0 1.7 0.00 0.00 0.00 42 1031.2
20260901085404 66 118 0.0 2.6 0.00 0.00 0.00 43 1031.2
20260901084903 66 118 0.9 1.7 0.00 0.00 0.00 42 1031.2
20260901084403 67 118 0.0 0.0 0.00 0.00 0.00 43 1031.3
20260901083403 67 118 0.0 1.7 0.00 0.00 0.00 43 1031.3
20260901082904 67 118 0.9 2.6 0.00 0.00 0.00 43 1031.3
20260901082403 67 141 1.7 2.6 0.00 0.00 0.00 43 1031.4
20260901081903 67 124 0.0 1.7 0.00 0.00 0.00 44 1031.4
20260901081404 67 130 0.9 2.6 0.00 0.00 0.00 44 1031.4
20260901080904 67 130 1.7 2.6 0.00 0.00 0.00 44 1031.4
20260901080403 68 130 0.9 1.7 0.00 0.00 0.00 45 1031.5
20260901075404 68 126 1.7 2.6 0.00 0.00 0.00 49 1031.5
20260901074903 68 88 0.9 1.7 0.00 0.00 0.00 60 1031.6
20260901074403 69 123 1.7 2.6 0.00 0.00 0.00 61 1031.5
20260901073903 69 115 0.0 0.9 0.00 0.00 0.00 61 1031.5
20260901073404 69 115 0.0 0.9 0.00 0.00 0.00 61 1031.4
20260901072904 69 115 0.0 1.7 0.00 0.00 0.00 61 1031.4
20260901072403 69 115 0.0 0.0 0.00 0.00 0.00 61 1031.3
20260901071903 69 115 0.0 0.0 0.00 0.00 0.00 61 1031.4
20260901071403 69 115 0.0 1.7 0.00 0.00 0.00 61 1031.4
20260901070903 69 115 0.9 1.7 0.00 0.00 0.00 61 1031.4
20260901070403 69 115 0.9 2.6 0.00 0.00 0.00 61 1031.4
20260901065904 70 111 0.9 1.7 0.00 0.00 0.00 60 1031.4
20260901065403 70 191 0.9 2.6 0.00 0.00 0.00 61 1031.4
20260901064904 70 140 1.7 2.6 0.00 0.00 0.00 60 1031.3
20260901063903 70 139 0.9 2.6 0.00 0.00 0.00 59 1031.2
20260901063403 71 192 0.0 0.0 0.00 0.00 0.00 59 1031.1
20260901062404 71 192 0.9 2.6 0.00 0.00 0.00 58 1031.0
20260901061903 71 188 0.9 2.6 0.00 0.00 0.00 57 1031.0
20260901060404 72 201 1.7 2.6 0.00 0.00 0.00 54 1031.1
20260901055903 72 182 1.7 2.6 0.00 0.00 0.00 53 1031.1
20260901055403 73 182 0.0 1.7 0.00 0.00 0.00 52 1031.2
20260901054904 73 182 0.0 0.9 0.00 0.00 0.00 52 1031.2
20260901054404 73 182 0.0 0.0 0.00 0.00 0.00 51 1031.2
20260901053904 73 182 0.0 0.0 0.00 0.00 0.00 51 1031.2
20260901052904 73 233 0.0 2.6 0.00 0.00 0.00 51 1031.1
20260901052404 74 233 0.9 2.6 0.00 0.00 0.00 50 1031.1
20260901051903 74 211 1.7 2.6 0.00 0.00 0.00 50 1031.1
20260901051404 74 207 2.6 5.2 0.00 0.00 0.00 49 1031.1
20260901050904 75 208 2.6 5.2 0.00 0.00 0.00 48 1031.1
20260901050403 75 194 1.7 2.6 0.00 0.00 0.00 47 1031.1
20260901045904 75 199 1.7 2.6 0.00 0.00 0.00 44 1031.0
20260901045403 76 207 1.7 4.3 0.00 0.00 0.00 41 1030.9
20260901044904 76 198 1.7 2.6 0.00 0.00 0.00 41 1030.9
20260901044404 76 228 2.6 2.6 0.00 0.00 0.00 40 1031.0
20260901043904 77 196 0.0 1.7 0.00 0.00 0.00 35 1030.9
20260901042903 77 213 1.7 4.3 0.00 0.00 0.00 34 1030.8
20260901042404 77 191 1.7 4.3 0.00 0.00 0.00 34 1030.7
20260901041904 78 198 1.7 5.2 0.00 0.00 0.00 34 1030.6
20260901041404 78 209 2.6 5.2 0.00 0.00 0.00 33 1030.5
20260901040904 78 217 2.6 4.3 0.00 0.00 0.00 32 1030.4
20260901040403 78 227 2.6 4.3 0.00 0.00 0.00 27 1030.4
20260901035903 79 206 1.7 2.6 0.00 0.00 0.00 26 1030.4
20260901035403 79 180 0.9 1.7 0.00 0.00 0.00 28 1030.4